This is the latest recevied weather packets stored in our database for station/object TB1YZC-13. If no packets are shown the sender has not sent any weather packets the latest 10 day(s).
| Time | Temp. | Humidity | Pressure | Rain* | Wind** | Luminosity | Snow |
|---|---|---|---|---|---|---|---|
| 1788177498 | 28.89° C | 44% | 1018.1 hPa | - | - | - | - |
| 1788176895 | 28.89° C | 42% | 1018.2 hPa | - | - | - | - |
| 1788176291 | 28.33° C | 47% | 1018.2 hPa | - | - | - | - |
| 1788175689 | 27.78° C | 48% | 1018.2 hPa | - | - | - | - |
| 1788175086 | 28.33° C | 50% | 1018.4 hPa | - | - | - | - |
| 1788174482 | 27.78° C | 46% | 1018.4 hPa | - | - | - | - |
| 1788173878 | 27.22° C | 44% | 1018.5 hPa | - | - | - | - |
| 1788173278 | 27.22° C | 52% | 1018.4 hPa | - | - | - | - |
| 1788172672 | 27.78° C | 54% | 1018.4 hPa | - | - | - | - |
| 1788172069 | 27.22° C | 55% | 1018.6 hPa | - | - | - | - |
| 1788171466 | 27.78° C | 55% | 1018.5 hPa | - | - | - | - |
| 1788170863 | 26.67° C | 58% | 1018.7 hPa | - | - | - | - |
| 1788170259 | 27.22° C | 57% | 1018.8 hPa | - | - | - | - |
| 1788169656 | 27.22° C | 59% | 1018.7 hPa | - | - | - | - |
| 1788169053 | 26.67° C | 59% | 1018.8 hPa | - | - | - | - |
| 1788168450 | 27.22° C | 59% | 1018.8 hPa | - | - | - | - |
| 1788167847 | 26.67° C | 60% | 1019 hPa | - | - | - | - |
| 1788167244 | 26.67° C | 61% | 1018.9 hPa | - | - | - | - |
| 1788166641 | 26.11° C | 62% | 1019.1 hPa | - | - | - | - |
| 1788166038 | 26.67° C | 59% | 1019.1 hPa | - | - | - | - |
| 1788165434 | 26.11° C | 59% | 1019.1 hPa | - | - | - | - |
| 1788164831 | 26.11° C | 63% | 1019.2 hPa | - | - | - | - |
| 1788164228 | 26.11° C | 62% | 1019.1 hPa | - | - | - | - |
| 1788163625 | 26.11° C | 63% | 1019.1 hPa | - | - | - | - |
| 1788163022 | 26.11° C | 63% | 1019.1 hPa | - | - | - | - |
* Rain since midnight (hover to see other rain measurements)
** Current wind speed in m/s (hover to see current wind gust speed)